ARIANE 5 R/B, 41309

Orbit data source: Space-Track

ARIANE 5 R/B, 41309 is space debris in HEO originally from a launch on Wed, 27 Jan 2016 UTC launched from the French Guiana (FRGUI). Debris objects in space refer to the collection of defunct objects orbiting the Earth. Examples of debris include non-operational satellites, rocket bodies, and fragments generated from explosions, collisions, or faulty payload assembly.

Loading next visibility...
Identifier
41309, 2016-004B
Orbit
HEO
Country
Flag of FRFR
Related business
Manufacturer
Airbus Safran
Mission
Spacecraft
Bus & Motor
ESC-A, Unknown motor
Mass
~5,000 kg wet, ~5,000 kg dry
Launch date (UTC)
2016-01-27 (10 years ago)
Launch vehicle
Unknown
Launch site
French Guiana (FRGUI)
Object type
Payload
Rocket body
Debris
Shape & HBR
Cyl + 1 Nozzle, 3.5 m
Radar Cross Section
41.627 m², Large (>1 m²)

Expand to show TLE details & history
Last TLE update: 20 hours ago

TLE from 20 hours ago
0 ARIANE 5 R/B
1 41309U 16004B   26171.08709159  .00002670  00000-0  87986-3 0  9990
2 41309   0.9633  53.0911 7187186 231.4783  11.1517  2.39452612 88652
Epoch: 2026-06-20T02:05Z
TLE epoch observation values (Epoch: 2026-06-20T02:05:24.713Z)
Latitude
-0.76779°
Longitude
60.34218°
Altitude
3,263.147 km
Speed
8.111 km/s
True Right ascension
00h 00m 00s
True Declination
0° 45' 52"
Sunlit
Object was in daylight at epoch
Visualization orbit readout
Latitude
Unknown
Longitude
Unknown
Altitude
Unknown
Speed
Unknown
Apparent Right ascension
Unknown
Apparent Declination
Unknown
Sunlit
N/A
Visualization observer readout
Local Sidereal Time
08:46:34
Azimuth
Unknown
Elevation
Unknown
Doppler factor
Unknown
Orbital elements
Apogee altitude
34,194.131 km
Perigee altitude
261.824 km
Semi-major axis
23,606.115 km
Eccentricity
0.71872
Inclination
0.9633°
RAAN
53.0911°
Arg. of periapsis
231.4783°
True anomaly
74.91558°
Mean anomaly
11.1517°
Eccentric anomaly
34.44122°
Mean motion
0.59842 °/min
Orbital period
601.58 mins
BSTAR
0.00087986
Loading maneuver chart data...
Computing Atmospheric mass density...
Loading historical data...
Loading historical data...
Loading historical data...
Loading historical data...
Loading historical data...
Loading historical data...
Loading historical data...
Other satellites on launch #4 in the year 2016 (2016-01-27 UTC)

Documentation

Showing up to 5 results
|